Location: Arcusa
(42.3167°N, 0.0833°W)
Time: 05:30:47
(UTC+00:00)

BREEZE M DEB (TANK) - Pass Details

Date: 25 January 2020
Orbit: 297 x 14513 km, 49.6° (Epoch: 26 February)

Event Time Altitude Azimuth Distance (km) Brightness Sun altitude
Exits shadow 06:49:04 - 297° (WNW) 6,439 7.0 -6.3°
Reaches altitude 10° 06:51:40 10° 298° (WNW) 5,396 6.7 -5.8°
Maximum altitude 07:02:47 83° 28° (NNE) 848 3.3 -3.9°
Drops below altitude 10° 07:06:06 10° 116° (ESE) 1,702 6.9 -3.3°
Sets 07:07:25 0° 117° (ESE) 2,327 8.7 -3.1°
